When you browse on this site, cookies collect data to enhance your experience and personalize the content and advertising you see.
Visit our Privacy Policy to learn more. By continuing to use the site, you agree to this use of cookies and data.
  • In United Kingdom
  • List of Countries
  • For 7 days
  • Water Temperature
  • Weather Map
  • Weather Widgets
  • user-avatar
    Login

    Hourly Weather Naftalan

    Today, 20 August, Tuesday

    Time Temperature Precipitation Wind Pressure Humidity
    00:00 +21°C° 0 mm 0 mps 763 mmHg 74%
    01:00 +24°C° 0 mm 1 mps 763 mmHg 70%
    02:00 +24°C° 0 mm 2 mps 763 mmHg 66%
    03:00 +24°C° 0 mm 3 mps 763 mmHg 60%
    04:00 +24°C° 0 mm 3 mps 763 mmHg 57%
    05:00 +25°C° 0 mm 3 mps 764 mmHg 54%
    06:00 +25°C° 0 mm 4 mps 764 mmHg 51%
    07:00 +28°C° 0 mm 4 mps 764 mmHg 45%
    08:00 +31°C° 0 mm 3 mps 764 mmHg 39%
    09:00 +35°C° 0 mm 3 mps 764 mmHg 32%
    10:00 +36°C° 0 mm 4 mps 764 mmHg 31%
    11:00 +37°C° 0 mm 4 mps 764 mmHg 30%
    12:00 +38°C° 0 mm 4 mps 764 mmHg 29%
    13:00 +39°C° 0 mm 5 mps 763 mmHg 30%
    14:00 +37°C° 0 mm 5 mps 763 mmHg 32%
    15:00 +38°C° 0 mm 6 mps 762 mmHg 33%
    16:00 +35°C° 0 mm 5 mps 763 mmHg 40%
    17:00 +33°C° 0 mm 5 mps 763 mmHg 47%
    18:00 +32°C° 0 mm 4 mps 763 mmHg 54%
    19:00 +29°C° 0 mm 3 mps 763 mmHg 60%
    20:00 +28°C° 0 mm 3 mps 763 mmHg 67%
    21:00 +26°C° 0 mm 2 mps 763 mmHg 73%
    22:00 +26°C° 0 mm 2 mps 763 mmHg 73%
    23:00 +25°C° 0 mm 2 mps 763 mmHg 73%

    Tomorrow, 21 August, Wednesday

    Time Temperature Precipitation Wind Pressure Humidity
    00:00 +25°C° 0 mm 1 mps 762 mmHg 73%
    01:00 +25°C° 0 mm 1 mps 762 mmHg 71%
    02:00 +25°C° 0 mm 1 mps 762 mmHg 69%
    03:00 +25°C° 0 mm 1 mps 762 mmHg 67%
    04:00 +25°C° 0 mm 1 mps 762 mmHg 64%
    05:00 +25°C° 0 mm 1 mps 762 mmHg 62%
    06:00 +26°C° 0 mm 1 mps 763 mmHg 59%
    07:00 +28°C° 0 mm 1 mps 763 mmHg 50%
    08:00 +31°C° 0 mm 1 mps 763 mmHg 41%
    09:00 +34°C° 0 mm 1 mps 763 mmHg 32%
    10:00 +36°C° 0 mm 2 mps 762 mmHg 29%
    11:00 +37°C° 0 mm 2 mps 762 mmHg 26%
    12:00 +38°C° 0 mm 3 mps 762 mmHg 22%
    13:00 +38°C° 0 mm 4 mps 761 mmHg 23%
    14:00 +37°C° 0 mm 4 mps 761 mmHg 24%
    15:00 +37°C° 0 mm 5 mps 760 mmHg 25%
    16:00 +35°C° 0 mm 4 mps 760 mmHg 31%
    17:00 +34°C° 0 mm 4 mps 760 mmHg 37%
    18:00 +31°C° 0 mm 3 mps 760 mmHg 43%
    19:00 +29°C° 0 mm 3 mps 760 mmHg 48%
    20:00 +28°C° 0 mm 3 mps 760 mmHg 54%
    21:00 +26°C° 0 mm 2 mps 761 mmHg 59%
    22:00 +26°C° 0 mm 2 mps 760 mmHg 62%
    23:00 +25°C° 0 mm 1 mps 760 mmHg 66%

    Day after tomorrow, 22 August, Thursday

    Time Temperature Precipitation Wind Pressure Humidity
    00:00 +24°C° 0 mm 1 mps 760 mmHg 69%
    01:00 +24°C° 0 mm 1 mps 760 mmHg 66%
    02:00 +25°C° 0 mm 1 mps 760 mmHg 64%
    03:00 +25°C° 0 mm 2 mps 760 mmHg 62%
    04:00 +25°C° 0 mm 2 mps 760 mmHg 62%
    05:00 +26°C° 0 mm 1 mps 760 mmHg 62%
    06:00 +26°C° 0 mm 1 mps 760 mmHg 62%
    07:00 +28°C° 0 mm 1 mps 760 mmHg 54%
    08:00 +31°C° 0 mm 1 mps 760 mmHg 46%
    09:00 +33°C° 0 mm 1 mps 760 mmHg 38%
    10:00 +35°C° 0 mm 2 mps 760 mmHg 34%
    11:00 +36°C° 0 mm 3 mps 760 mmHg 31%
    12:00 +37°C° 0 mm 4 mps 759 mmHg 28%
    13:00 +37°C° 0 mm 4 mps 759 mmHg 28%
    14:00 +37°C° 0 mm 4 mps 759 mmHg 29%
    15:00 +36°C° 0 mm 5 mps 758 mmHg 29%
    16:00 +35°C° 0 mm 5 mps 758 mmHg 35%
    17:00 +33°C° 0 mm 4 mps 758 mmHg 41%
    18:00 +32°C° 0 mm 4 mps 758 mmHg 47%
    19:00 +30°C° 0 mm 4 mps 759 mmHg 53%
    20:00 +28°C° 0 mm 4 mps 759 mmHg 59%
    21:00 +27°C° 0 mm 3 mps 759 mmHg 64%
    22:00 +26°C° 0 mm 3 mps 759 mmHg 68%
    23:00 +26°C° 0 mm 2 mps 759 mmHg 71%

    23 August, Friday

    Time Temperature Precipitation Wind Pressure Humidity
    00:00 +25°C° 0 mm 1 mps 759 mmHg 75%
    01:00 +25°C° 0 mm 1 mps 759 mmHg 72%
    02:00 +25°C° 0 mm 2 mps 759 mmHg 68%
    03:00 +26°C° 0 mm 2 mps 759 mmHg 65%
    04:00 +26°C° 0 mm 2 mps 759 mmHg 65%
    05:00 +26°C° 0 mm 1 mps 759 mmHg 64%
    06:00 +26°C° 0 mm 1 mps 760 mmHg 63%
    07:00 +29°C° 0 mm 1 mps 760 mmHg 55%
    08:00 +31°C° 0 mm 1 mps 760 mmHg 46%
    09:00 +33°C° 0 mm 1 mps 760 mmHg 38%
    10:00 +36°C° 0 mm 2 mps 759 mmHg 35%
    11:00 +37°C° 0 mm 3 mps 759 mmHg 32%
    12:00 +38°C° 0 mm 4 mps 759 mmHg 28%
    13:00 +38°C° 0 mm 4 mps 759 mmHg 29%
    14:00 +37°C° 0 mm 5 mps 758 mmHg 30%
    15:00 +37°C° 0 mm 5 mps 758 mmHg 31%
    16:00 +36°C° 0 mm 5 mps 758 mmHg 38%
    17:00 +34°C° 0 mm 4 mps 758 mmHg 45%
    18:00 +32°C° 0 mm 4 mps 758 mmHg 52%
    19:00 +30°C° 0 mm 3 mps 758 mmHg 58%
    20:00 +29°C° 0 mm 3 mps 759 mmHg 63%
    21:00 +28°C° 0 mm 2 mps 759 mmHg 68%
    22:00 +28°C° 0 mm 2 mps 759 mmHg 68%
    23:00 +27°C° 0 mm 2 mps 759 mmHg 68%

    24 August, Saturday

    Time Temperature Precipitation Wind Pressure Humidity
    00:00 +27°C° 0 mm 2 mps 759 mmHg 68%
    01:00 +27°C° 0 mm 2 mps 759 mmHg 70%
    02:00 +26°C° 0 mm 2 mps 759 mmHg 72%
    03:00 +26°C° 0 mm 2 mps 759 mmHg 75%
    04:00 +26°C° 0 mm 2 mps 759 mmHg 73%
    05:00 +27°C° 0 mm 2 mps 760 mmHg 71%
    06:00 +27°C° 0 mm 2 mps 760 mmHg 69%
    07:00 +29°C° 0 mm 2 mps 760 mmHg 60%
    08:00 +32°C° 0 mm 2 mps 760 mmHg 50%
    09:00 +35°C° 0 mm 3 mps 760 mmHg 41%
    10:00 +36°C° 0 mm 4 mps 760 mmHg 39%
    11:00 +36°C° 0 mm 5 mps 760 mmHg 36%
    12:00 +38°C° 0 mm 6 mps 760 mmHg 33%
    13:00 +36°C° 0 mm 6 mps 759 mmHg 34%
    14:00 +36°C° 0 mm 7 mps 759 mmHg 35%
    15:00 +35°C° 0 mm 7 mps 759 mmHg 36%
    16:00 +34°C° 0 mm 6 mps 759 mmHg 40%
    17:00 +32°C° 0 mm 5 mps 759 mmHg 45%
    18:00 +30°C° 0 mm 4 mps 759 mmHg 50%
    19:00 +29°C° 0 mm 3 mps 760 mmHg 54%
    20:00 +27°C° 0 mm 3 mps 760 mmHg 58%
    21:00 +26°C° 0 mm 2 mps 761 mmHg 62%
    22:00 +26°C° 0 mm 2 mps 761 mmHg 63%
    23:00 +25°C° 0 mm 2 mps 761 mmHg 63%

    25 August, Sunday

    Time Temperature Precipitation Wind Pressure Humidity
    00:00 +25°C° 0 mm 2 mps 761 mmHg 63%
    01:00 +25°C° 0 mm 2 mps 761 mmHg 66%
    02:00 +24°C° 0 mm 2 mps 761 mmHg 68%
    03:00 +24°C° 0 mm 3 mps 761 mmHg 70%
    04:00 +24°C° 0 mm 3 mps 761 mmHg 65%
    05:00 +25°C° 0 mm 3 mps 761 mmHg 61%
    06:00 +25°C° 0 mm 3 mps 762 mmHg 56%
    07:00 +27°C° 0 mm 3 mps 762 mmHg 48%
    08:00 +30°C° 0 mm 3 mps 762 mmHg 41%
    09:00 +33°C° 0 mm 4 mps 762 mmHg 33%
    10:00 +34°C° 0 mm 4 mps 762 mmHg 33%
    11:00 +35°C° 0 mm 5 mps 762 mmHg 32%
    12:00 +36°C° 0 mm 5 mps 761 mmHg 32%
    13:00 +36°C° 0 mm 5 mps 761 mmHg 31%
    14:00 +36°C° 0 mm 6 mps 761 mmHg 31%
    15:00 +36°C° 0 mm 6 mps 760 mmHg 31%
    16:00 +34°C° 0 mm 5 mps 760 mmHg 36%
    17:00 +32°C° 0 mm 5 mps 760 mmHg 42%
    18:00 +30°C° 0 mm 4 mps 760 mmHg 48%
    19:00 +28°C° 0 mm 3 mps 761 mmHg 55%
    20:00 +27°C° 0 mm 2 mps 761 mmHg 61%
    21:00 +23°C° 0 mm 0 mps 762 mmHg 68%
    22:00 +23°C° 0 mm 0 mps 762 mmHg 66%
    23:00 +25°C° 0 mm 1 mps 762 mmHg 65%
    Show more